Time,TemperatureF,DewpointF,PressureIn,WindDirection,WindDirectionDegrees,WindSpeedMPH,WindSpeedGustMPH,Humidity,HourlyPrecipIn,Conditions,Clouds,dailyrainin,SolarRadiationWatts/m^2,SoftwareType,DateUTC
2013-05-15 00:23:00,56.0,51.0,29.92,West,281,10.0,25.0,84,0.00,,,0.00,0.000000,,2013-05-15 04:23:00,
2013-05-15 00:33:00,56.0,51.0,29.92,West,281,10.0,25.0,84,0.00,,,0.00,0.000000,,2013-05-15 04:33:00,
2013-05-15 00:42:00,56.0,51.0,29.92,West,281,10.0,25.0,84,0.00,,,0.00,0.000000,,2013-05-15 04:42:00,
2013-05-15 00:52:00,56.0,51.0,29.92,West,281,10.0,25.0,84,0.00,,,0.00,0.000000,,2013-05-15 04:52:00,
2013-05-15 01:22:00,57.0,52.0,29.94,North,352,2.0,21.0,84,0.00,,,0.00,0.000000,,2013-05-15 05:22:00,
2013-05-15 01:32:00,57.0,52.0,29.94,North,352,2.0,21.0,84,0.00,,,0.00,0.000000,,2013-05-15 05:32:00,
2013-05-15 01:42:00,57.0,52.0,29.94,North,352,2.0,21.0,84,0.00,,,0.00,0.000000,,2013-05-15 05:42:00,
2013-05-15 01:52:00,57.0,52.0,29.94,North,352,2.0,21.0,84,0.00,,,0.00,0.000000,,2013-05-15 05:52:00,
2013-05-15 02:21:00,56.0,55.0,29.96,North,2,2.0,13.0,95,0.00,,,0.00,0.000000,,2013-05-15 06:21:00,
2013-05-15 02:31:00,56.0,55.0,29.96,North,2,2.0,13.0,95,0.00,,,0.00,0.000000,,2013-05-15 06:31:00,
2013-05-15 02:41:00,56.0,55.0,29.96,North,2,2.0,13.0,95,0.00,,,0.00,0.000000,,2013-05-15 06:41:00,
2013-05-15 02:51:00,56.0,55.0,29.96,North,2,2.0,13.0,95,0.00,,,0.00,0.000000,,2013-05-15 06:51:00,
2013-05-15 03:21:00,55.0,52.0,29.96,North,1,4.0,5.0,89,0.00,,,0.00,0.000000,,2013-05-15 07:21:00,
2013-05-15 03:32:00,55.0,52.0,29.96,North,1,4.0,5.0,89,0.00,,,0.00,0.000000,,2013-05-15 07:32:00,
2013-05-15 03:41:00,55.0,52.0,29.96,North,1,4.0,5.0,89,0.00,,,0.00,0.000000,,2013-05-15 07:41:00,
2013-05-15 03:52:00,55.0,52.0,29.96,North,1,4.0,5.0,89,0.00,,,0.00,0.000000,,2013-05-15 07:52:00,
2013-05-15 04:21:00,55.0,50.0,29.96,North,7,6.0,9.0,82,0.00,,,0.00,0.000000,,2013-05-15 08:21:00,
2013-05-15 04:32:00,55.0,50.0,29.96,North,7,6.0,9.0,82,0.00,,,0.00,0.000000,,2013-05-15 08:32:00,
2013-05-15 04:42:00,55.0,50.0,29.96,North,7,6.0,9.0,82,0.00,,,0.00,0.000000,,2013-05-15 08:42:00,
2013-05-15 04:52:00,55.0,50.0,29.96,North,7,6.0,9.0,82,0.00,,,0.00,0.000000,,2013-05-15 08:52:00,
2013-05-15 05:21:00,53.0,47.0,29.96,NNE,13,7.0,10.0,81,0.00,,,0.00,0.000000,,2013-05-15 09:21:00,
2013-05-15 05:32:00,53.0,47.0,29.96,NNE,13,7.0,10.0,81,0.00,,,0.00,0.000000,,2013-05-15 09:32:00,
2013-05-15 05:42:00,53.0,47.0,29.96,NNE,13,7.0,10.0,81,0.00,,,0.00,0.000000,,2013-05-15 09:42:00,
2013-05-15 05:53:00,53.0,47.0,29.96,NNE,13,7.0,10.0,81,0.00,,,0.00,0.000000,,2013-05-15 09:53:00,
2013-05-15 06:22:00,54.0,48.0,29.96,NNE,24,4.0,10.0,81,0.00,,,0.00,0.000000,,2013-05-15 10:22:00,
2013-05-15 06:32:00,54.0,48.0,29.96,NNE,24,4.0,10.0,81,0.00,,,0.00,0.000000,,2013-05-15 10:32:00,
2013-05-15 06:42:00,54.0,48.0,29.96,NNE,24,4.0,10.0,81,0.00,,,0.00,0.000000,,2013-05-15 10:42:00,
2013-05-15 06:52:00,54.0,48.0,29.96,NNE,24,4.0,10.0,81,0.00,,,0.00,0.000000,,2013-05-15 10:52:00,
2013-05-15 07:26:00,52.0,48.0,29.96,NNE,26,4.0,10.0,85,0.00,,,0.00,0.000000,,2013-05-15 11:26:00,
2013-05-15 07:35:00,52.0,48.0,29.96,NNE,26,4.0,10.0,85,0.00,,,0.00,0.000000,,2013-05-15 11:35:00,
2013-05-15 07:45:00,52.0,48.0,29.96,NNE,26,4.0,10.0,85,0.00,,,0.00,0.000000,,2013-05-15 11:45:00,
2013-05-15 07:53:00,52.0,48.0,29.96,NNE,26,4.0,10.0,85,0.00,,,0.00,0.000000,,2013-05-15 11:53:00,
2013-05-15 08:35:00,55.0,49.0,29.97,NE,39,3.0,9.0,79,0.00,,,0.00,0.000000,,2013-05-15 12:35:00,
2013-05-15 08:44:00,55.0,49.0,29.97,NE,39,3.0,9.0,79,0.00,,,0.00,0.000000,,2013-05-15 12:44:00,
2013-05-15 08:53:00,55.0,49.0,29.97,NE,39,3.0,9.0,79,0.00,,,0.00,0.000000,,2013-05-15 12:53:00,
2013-05-15 09:24:00,55.0,47.0,29.97,North,8,6.0,12.0,75,0.00,,,0.00,0.000000,,2013-05-15 13:24:00,
2013-05-15 09:35:00,55.0,47.0,29.97,North,8,6.0,12.0,75,0.00,,,0.00,0.000000,,2013-05-15 13:35:00,
2013-05-15 09:45:00,55.0,47.0,29.97,North,8,6.0,12.0,75,0.00,,,0.00,0.000000,,2013-05-15 13:45:00,
2013-05-15 09:53:00,55.0,47.0,29.97,North,8,6.0,12.0,75,0.00,,,0.00,0.000000,,2013-05-15 13:53:00,
2013-05-15 10:25:00,57.0,49.0,29.99,North,7,6.0,10.0,75,0.00,,,0.00,32.000000,,2013-05-15 14:25:00,
2013-05-15 10:36:00,57.0,49.0,29.99,North,7,6.0,10.0,75,0.00,,,0.00,32.000000,,2013-05-15 14:36:00,
2013-05-15 10:44:00,57.0,49.0,29.99,North,7,6.0,10.0,75,0.00,,,0.00,32.000000,,2013-05-15 14:44:00,
2013-05-15 10:52:00,57.0,49.0,29.99,North,7,6.0,10.0,75,0.00,,,0.00,32.000000,,2013-05-15 14:52:00,
2013-05-15 11:45:00,66.0,56.0,30.00,ENE,69,2.0,11.0,71,0.00,,,0.00,180.000000,,2013-05-15 15:45:00,
2013-05-15 11:54:00,66.0,56.0,30.00,ENE,69,2.0,11.0,71,0.00,,,0.00,180.000000,,2013-05-15 15:54:00,
2013-05-15 12:45:00,68.0,56.0,30.01,WSW,245,4.0,10.0,65,0.00,,,0.00,438.000000,,2013-05-15 16:45:00,
2013-05-15 13:26:00,69.0,56.0,30.02,WSW,241,5.0,8.0,64,0.00,,,0.00,604.000000,,2013-05-15 17:26:00,
2013-05-15 13:34:00,69.0,56.0,30.02,WSW,241,5.0,8.0,64,0.00,,,0.00,604.000000,,2013-05-15 17:34:00,
2013-05-15 13:44:00,69.0,56.0,30.02,WSW,241,5.0,8.0,64,0.00,,,0.00,604.000000,,2013-05-15 17:44:00,
2013-05-15 13:53:00,69.0,56.0,30.02,WSW,241,5.0,8.0,64,0.00,,,0.00,604.000000,,2013-05-15 17:53:00,
2013-05-15 14:25:00,70.0,57.0,30.02,WSW,246,6.0,9.0,64,0.00,,,0.00,843.000000,,2013-05-15 18:25:00,
2013-05-15 14:35:00,70.0,57.0,30.02,WSW,246,6.0,9.0,64,0.00,,,0.00,843.000000,,2013-05-15 18:35:00,
2013-05-15 14:46:00,70.0,57.0,30.02,WSW,246,6.0,9.0,64,0.00,,,0.00,843.000000,,2013-05-15 18:46:00,
2013-05-15 14:54:00,70.0,57.0,30.02,WSW,246,6.0,9.0,64,0.00,,,0.00,843.000000,,2013-05-15 18:54:00,
2013-05-15 15:43:00,73.0,58.0,30.04,SW,231,4.0,11.0,59,0.00,,,0.00,852.000000,,2013-05-15 19:43:00,
2013-05-15 15:53:00,73.0,58.0,30.04,SW,231,4.0,11.0,59,0.00,,,0.00,852.000000,,2013-05-15 19:53:00,
2013-05-15 16:25:00,71.0,56.0,30.02,SW,217,4.0,9.0,60,0.00,,,0.00,846.000000,,2013-05-15 20:25:00,
2013-05-15 16:35:00,71.0,56.0,30.02,SW,217,4.0,9.0,60,0.00,,,0.00,846.000000,,2013-05-15 20:35:00,
2013-05-15 16:44:00,71.0,56.0,30.02,SW,217,4.0,9.0,60,0.00,,,0.00,846.000000,,2013-05-15 20:44:00,
2013-05-15 16:52:00,71.0,56.0,30.02,SW,217,4.0,9.0,60,0.00,,,0.00,846.000000,,2013-05-15 20:52:00,
2013-05-15 17:26:00,69.0,57.0,30.01,WSW,242,7.0,10.0,66,0.00,,,0.00,748.000000,,2013-05-15 21:26:00,
2013-05-15 17:38:00,69.0,57.0,30.01,WSW,242,7.0,10.0,66,0.00,,,0.00,748.000000,,2013-05-15 21:38:00,
2013-05-15 17:46:00,69.0,57.0,30.01,WSW,242,7.0,10.0,66,0.00,,,0.00,748.000000,,2013-05-15 21:46:00,
2013-05-15 17:54:00,69.0,57.0,30.01,WSW,242,7.0,10.0,66,0.00,,,0.00,748.000000,,2013-05-15 21:54:00,
2013-05-15 18:27:00,68.0,56.0,30.00,WSW,254,10.0,13.0,66,0.00,,,0.00,738.000000,,2013-05-15 22:27:00,
2013-05-15 18:53:00,68.0,56.0,30.00,WSW,254,10.0,13.0,66,0.00,,,0.00,738.000000,,2013-05-15 22:53:00,
2013-05-15 19:36:00,70.0,55.0,29.97,WSW,255,10.0,16.0,60,0.00,,,0.00,829.000000,,2013-05-15 23:36:00,
2013-05-15 19:45:00,70.0,55.0,29.97,WSW,255,10.0,16.0,60,0.00,,,0.00,829.000000,,2013-05-15 23:45:00,
2013-05-15 20:25:00,67.0,54.0,29.96,West,261,9.0,20.0,63,0.00,,,0.00,654.000000,,2013-05-16 00:25:00,
2013-05-15 20:34:00,67.0,54.0,29.96,West,261,9.0,20.0,63,0.00,,,0.00,654.000000,,2013-05-16 00:34:00,
2013-05-15 20:45:00,67.0,54.0,29.96,West,261,9.0,20.0,63,0.00,,,0.00,654.000000,,2013-05-16 00:45:00,
2013-05-15 20:52:00,67.0,54.0,29.96,West,261,9.0,20.0,63,0.00,,,0.00,654.000000,,2013-05-16 00:52:00,
2013-05-15 21:26:00,66.0,53.0,29.94,West,259,9.0,20.0,64,0.00,,,0.00,441.000000,,2013-05-16 01:26:00,
2013-05-15 21:35:00,66.0,53.0,29.94,West,259,9.0,20.0,64,0.00,,,0.00,441.000000,,2013-05-16 01:35:00,
2013-05-15 22:26:00,64.0,54.0,29.92,West,264,10.0,18.0,69,0.00,,,0.00,196.000000,,2013-05-16 02:26:00,
2013-05-15 22:36:00,64.0,54.0,29.92,West,264,10.0,18.0,69,0.00,,,0.00,196.000000,,2013-05-16 02:36:00,
2013-05-15 22:43:00,64.0,54.0,29.92,West,264,10.0,18.0,69,0.00,,,0.00,196.000000,,2013-05-16 02:43:00,
2013-05-15 22:51:00,64.0,54.0,29.92,West,264,10.0,18.0,69,0.00,,,0.00,196.000000,,2013-05-16 02:51:00,
2013-05-15 23:24:00,60.0,51.0,29.91,West,274,8.0,19.0,71,0.00,,,0.00,25.000000,,2013-05-16 03:24:00,
2013-05-15 23:44:00,60.0,51.0,29.91,West,274,8.0,19.0,71,0.00,,,0.00,25.000000,,2013-05-16 03:44:00,
2013-05-15 23:54:00,60.0,51.0,29.91,West,274,8.0,19.0,71,0.00,,,0.00,25.000000,,2013-05-16 03:54:00,